Location: Bodest
(46.3000°N, 22.5667°E)
Time: 14:59:34
(UTC+00:00)

SL-19 R/B - Pass Details

Date: 04 June 2022
Orbit: 874 x 1208 km, 100.6° (Epoch: 03 July)

Event Time Altitude Azimuth Distance (km) Brightness Sun altitude
Rises 19:11:55 0° 10° (N) 4,048 8.3 -8.1°
Reaches altitude 10° 19:14:48 10° 1° (N) 3,114 7.8 -8.5°
Maximum altitude 19:20:50 31° 303° (WNW) 1,993 7.0 -9.2°
Drops below altitude 10° 19:26:56 10° 246° (WSW) 3,148 7.4 -9.9°
Sets 19:29:53 0° 236° (WSW) 4,099 7.9 -10.3°
